Simultaneous Nadir Overpasses (SNOs) Predictions

Prediction of SNOs between NOAA-19 and NPP Satellite Orbit:

Table of predicted SNOs for the next 14.0 days since TLE Epoch: 10/30/2021
Index Date (NOAA-19) Time (NOAA-19) Lat,Lon (NOAA-19) SZA (NOAA-19 ) Date (NPP) Time (NPP) Lat,Lon (NPP) SZA (NPP ) Distance(km) Time Diff (sec)
1 11/10/2021 02:27:55 -77.56, -61.34 84.60 11/10/2021 02:29:07 -77.62, -60.08 84.65 30.96 72
2 11/10/2021 03:18:49 77.72, 106.73 95.51 11/10/2021 03:19:55 77.72, 106.73 95.49 0.68 66
3 11/10/2021 04:09:51 -77.73, -85.98 84.48 11/10/2021 04:10:40 -77.74, -86.05 84.48 2.61 49
4 11/10/2021 05:00:49 77.72, 81.27 95.53 11/10/2021 05:01:25 77.72, 81.36 95.51 2.04 36
5 11/10/2021 05:51:51 -77.73,-111.43 84.46 11/10/2021 05:52:10 -77.74,-111.43 84.46 1.15 19
6 11/10/2021 06:42:49 77.73, 55.81 95.55 11/10/2021 06:42:56 77.77, 55.78 95.59 3.84 7
7 11/10/2021 07:33:51 -77.74,-136.89 84.44 11/10/2021 07:33:40 -77.74,-136.80 84.44 2.10 11
8 11/10/2021 08:24:49 77.74, 30.35 95.58 11/10/2021 08:24:26 77.77, 30.40 95.61 3.25 23
9 11/10/2021 09:15:51 -77.75,-162.35 84.41 11/10/2021 09:15:10 -77.74,-162.18 84.42 4.01 41
10 11/10/2021 10:06:48 77.78, 5.10 95.62 11/10/2021 10:05:56 77.77, 5.03 95.63 2.74 52
11 11/10/2021 10:57:51 -77.76, 172.20 84.39 11/10/2021 10:56:41 -77.79, 172.24 84.34 3.40 70
12 11/10/2021 11:48:40 78.10, -18.61 95.83 11/10/2021 11:47:34 78.09, -22.01 96.07 78.01 66



Historial Predications of SNOs between NOAA-19 and NPP
